Time,TemperatureF,DewpointF,PressureIn,WindDirection,WindDirectionDegrees,WindSpeedMPH,WindSpeedGustMPH,Humidity,HourlyPrecipIn,Conditions,Clouds,dailyrainin,SoftwareType,DateUTC
2013-05-08 00:04:00,45.7,30.0,30.04,SE,129,0.0,0.0,55,0.00,,,0.00,weatherlink.com 1.10,2013-05-08 04:04:00,
2013-05-08 00:19:00,44.4,33.0,30.04,SSW,195,0.0,0.0,65,0.00,,,0.00,weatherlink.com 1.10,2013-05-08 04:19:00,
2013-05-08 00:35:00,44.1,33.0,30.04,SSW,195,0.0,0.0,64,0.00,,,0.00,weatherlink.com 1.10,2013-05-08 04:35:00,
2013-05-08 00:49:00,44.2,31.0,30.04,SSW,196,0.0,0.0,61,0.00,,,0.00,weatherlink.com 1.10,2013-05-08 04:49:00,
2013-05-08 01:04:00,43.3,31.0,30.03,SSW,196,0.0,0.0,63,0.00,,,0.00,weatherlink.com 1.10,2013-05-08 05:04:00,
2013-05-08 01:20:00,42.6,31.0,30.03,SSW,195,0.0,0.0,63,0.00,,,0.00,weatherlink.com 1.10,2013-05-08 05:20:00,
2013-05-08 01:35:00,41.0,32.0,30.03,SSW,195,0.0,0.0,69,0.00,,,0.00,weatherlink.com 1.10,2013-05-08 05:35:00,
2013-05-08 01:50:00,40.8,32.0,30.03,SSW,195,0.0,0.0,71,0.00,,,0.00,weatherlink.com 1.10,2013-05-08 05:50:00,
2013-05-08 02:05:00,40.9,31.0,30.02,SSW,196,0.0,0.0,67,0.00,,,0.00,weatherlink.com 1.10,2013-05-08 06:05:00,
2013-05-08 02:20:00,40.6,31.0,30.03,SSW,195,0.0,0.0,69,0.00,,,0.00,weatherlink.com 1.10,2013-05-08 06:20:00,
2013-05-08 02:35:00,39.6,33.0,30.02,SSW,196,0.0,0.0,77,0.00,,,0.00,weatherlink.com 1.10,2013-05-08 06:35:00,
2013-05-08 02:50:00,38.9,33.0,30.02,SSW,195,0.0,0.0,79,0.00,,,0.00,weatherlink.com 1.10,2013-05-08 06:50:00,
2013-05-08 03:05:00,39.2,30.0,30.02,SSW,195,0.0,0.0,70,0.00,,,0.00,weatherlink.com 1.10,2013-05-08 07:05:00,
2013-05-08 03:20:00,39.1,31.0,30.02,SSW,195,0.0,0.0,74,0.00,,,0.00,weatherlink.com 1.10,2013-05-08 07:20:00,
2013-05-08 03:35:00,39.5,33.0,30.02,SSW,195,0.0,0.0,78,0.00,,,0.00,weatherlink.com 1.10,2013-05-08 07:35:00,
2013-05-08 03:50:00,39.7,32.0,30.02,SSW,195,0.0,0.0,75,0.00,,,0.00,weatherlink.com 1.10,2013-05-08 07:50:00,
2013-05-08 04:05:00,38.9,33.0,30.02,SSW,195,0.0,0.0,78,0.00,,,0.00,weatherlink.com 1.10,2013-05-08 08:05:00,
2013-05-08 04:20:00,39.1,33.0,30.02,SSW,195,0.0,0.0,79,0.00,,,0.00,weatherlink.com 1.10,2013-05-08 08:20:00,
2013-05-08 04:35:00,38.7,33.0,30.02,SSW,196,0.0,0.0,80,0.00,,,0.00,weatherlink.com 1.10,2013-05-08 08:35:00,
2013-05-08 04:50:00,37.8,32.0,30.02,SSW,195,0.0,0.0,79,0.00,,,0.00,weatherlink.com 1.10,2013-05-08 08:50:00,
2013-05-08 05:05:00,38.5,33.0,30.02,SSW,195,0.0,0.0,80,0.00,,,0.00,weatherlink.com 1.10,2013-05-08 09:05:00,
2013-05-08 05:20:00,39.0,33.0,30.01,SSW,196,0.0,0.0,80,0.00,,,0.00,weatherlink.com 1.10,2013-05-08 09:20:00,
2013-05-08 05:35:00,38.6,32.0,30.01,SSW,196,0.0,0.0,78,0.00,,,0.00,weatherlink.com 1.10,2013-05-08 09:35:00,
2013-05-08 05:50:00,39.5,33.0,30.01,SSE,165,0.0,0.0,78,0.00,,,0.00,weatherlink.com 1.10,2013-05-08 09:50:00,
2013-05-08 06:05:00,39.9,33.0,30.02,SSE,164,0.0,0.0,77,0.00,,,0.00,weatherlink.com 1.10,2013-05-08 10:05:00,
2013-05-08 06:20:00,39.6,33.0,30.02,SSE,163,0.0,0.0,76,0.00,,,0.00,weatherlink.com 1.10,2013-05-08 10:20:00,
2013-05-08 06:35:00,39.5,33.0,30.02,SSE,164,0.0,0.0,77,0.00,,,0.00,weatherlink.com 1.10,2013-05-08 10:35:00,
2013-05-08 06:50:00,39.3,33.0,30.02,SSE,163,0.0,0.0,78,0.00,,,0.00,weatherlink.com 1.10,2013-05-08 10:50:00,
2013-05-08 07:05:00,40.8,34.0,30.02,SSE,164,0.0,0.0,77,0.00,,,0.00,weatherlink.com 1.10,2013-05-08 11:05:00,
2013-05-08 07:20:00,43.0,34.0,30.03,SSE,163,0.0,0.0,71,0.00,,,0.00,weatherlink.com 1.10,2013-05-08 11:20:00,
2013-05-08 07:35:00,48.6,38.0,30.03,SE,140,0.0,2.0,68,0.00,,,0.00,weatherlink.com 1.10,2013-05-08 11:35:00,
2013-05-08 07:50:00,52.2,35.0,30.04,ESE,108,3.0,3.0,53,0.00,,,0.00,weatherlink.com 1.10,2013-05-08 11:50:00,
2013-05-08 08:05:00,54.7,36.0,30.04,ESE,116,2.0,4.0,49,0.00,,,0.00,weatherlink.com 1.10,2013-05-08 12:05:00,
2013-05-08 08:20:00,56.3,37.0,30.04,ESE,123,2.0,4.0,49,0.00,,,0.00,weatherlink.com 1.10,2013-05-08 12:20:00,
2013-05-08 08:35:00,58.4,37.0,30.04,ESE,113,3.0,4.0,45,0.00,,,0.00,weatherlink.com 1.10,2013-05-08 12:35:00,
2013-05-08 08:51:00,59.9,35.0,30.04,East,101,3.0,6.0,39,0.00,,,0.00,weatherlink.com 1.10,2013-05-08 12:51:00,
2013-05-08 09:06:00,61.6,37.0,30.05,ESE,110,3.0,4.0,40,0.00,,,0.00,weatherlink.com 1.10,2013-05-08 13:06:00,
2013-05-08 09:21:00,62.8,36.0,30.05,SE,146,1.0,6.0,37,0.00,,,0.00,weatherlink.com 1.10,2013-05-08 13:21:00,
2013-05-08 09:36:00,64.8,36.0,30.04,South,176,2.0,8.0,34,0.00,,,0.00,weatherlink.com 1.10,2013-05-08 13:36:00,
2013-05-08 09:51:00,65.7,33.0,30.04,East,99,5.0,6.0,30,0.00,,,0.00,weatherlink.com 1.10,2013-05-08 13:51:00,
2013-05-08 10:06:00,67.2,34.0,30.04,ESE,105,6.0,8.0,29,0.00,,,0.00,weatherlink.com 1.10,2013-05-08 14:06:00,
2013-05-08 10:21:00,68.2,33.0,30.03,SSE,164,1.0,8.0,27,0.00,,,0.00,weatherlink.com 1.10,2013-05-08 14:21:00,
2013-05-08 10:36:00,69.0,32.0,30.03,ESE,106,6.0,10.0,25,0.00,,,0.00,weatherlink.com 1.10,2013-05-08 14:36:00,
2013-05-08 10:51:00,69.5,32.0,30.03,ESE,109,8.0,8.0,25,0.00,,,0.00,weatherlink.com 1.10,2013-05-08 14:51:00,
2013-05-08 11:06:00,69.3,32.0,30.03,ESE,122,5.0,10.0,25,0.00,,,0.00,weatherlink.com 1.10,2013-05-08 15:06:00,
2013-05-08 11:21:00,69.6,33.0,30.03,ESE,117,6.0,11.0,26,0.00,,,0.00,weatherlink.com 1.10,2013-05-08 15:21:00,
2013-05-08 11:36:00,70.7,36.0,30.03,SSW,211,2.0,11.0,28,0.00,,,0.00,weatherlink.com 1.10,2013-05-08 15:36:00,
2013-05-08 11:51:00,71.4,35.0,30.03,ESE,113,6.0,9.0,26,0.00,,,0.00,weatherlink.com 1.10,2013-05-08 15:51:00,
2013-05-08 12:06:00,71.4,38.0,30.02,South,177,2.0,8.0,30,0.00,,,0.00,weatherlink.com 1.10,2013-05-08 16:06:00,
2013-05-08 12:21:00,71.6,39.0,30.02,West,271,1.0,8.0,31,0.00,,,0.00,weatherlink.com 1.10,2013-05-08 16:21:00,
2013-05-08 12:36:00,72.2,41.0,30.02,West,277,4.0,8.0,33,0.00,,,0.00,weatherlink.com 1.10,2013-05-08 16:36:00,
2013-05-08 12:51:00,71.5,42.0,30.02,WSW,249,6.0,9.0,34,0.00,,,0.00,weatherlink.com 1.10,2013-05-08 16:51:00,
2013-05-08 13:06:00,71.7,42.0,30.02,SE,126,6.0,9.0,34,0.00,,,0.00,weatherlink.com 1.10,2013-05-08 17:06:00,
2013-05-08 13:21:00,71.8,42.0,30.02,ESE,120,1.0,11.0,34,0.00,,,0.00,weatherlink.com 1.10,2013-05-08 17:21:00,
2013-05-08 13:36:00,72.9,42.0,30.01,SW,218,2.0,8.0,33,0.00,,,0.00,weatherlink.com 1.10,2013-05-08 17:36:00,
2013-05-08 13:51:00,72.9,42.0,30.00,SSW,203,5.0,9.0,33,0.00,,,0.00,weatherlink.com 1.10,2013-05-08 17:51:00,
2013-05-08 14:06:00,73.8,45.0,30.00,WSW,243,2.0,10.0,36,0.00,,,0.00,weatherlink.com 1.10,2013-05-08 18:06:00,
2013-05-08 14:21:00,73.4,43.0,30.00,East,80,4.0,10.0,33,0.00,,,0.00,weatherlink.com 1.10,2013-05-08 18:21:00,
2013-05-08 14:36:00,73.4,43.0,30.00,SSW,198,2.0,12.0,33,0.00,,,0.00,weatherlink.com 1.10,2013-05-08 18:36:00,
2013-05-08 14:51:00,73.8,44.0,29.99,SW,214,3.0,8.0,34,0.00,,,0.00,weatherlink.com 1.10,2013-05-08 18:51:00,
2013-05-08 15:06:00,73.9,41.0,29.99,SW,221,3.0,9.0,31,0.00,,,0.00,weatherlink.com 1.10,2013-05-08 19:06:00,
2013-05-08 15:21:00,73.6,41.0,29.99,SSW,200,4.0,8.0,31,0.00,,,0.00,weatherlink.com 1.10,2013-05-08 19:21:00,
2013-05-08 15:36:00,74.2,42.0,29.98,West,270,1.0,10.0,32,0.00,,,0.00,weatherlink.com 1.10,2013-05-08 19:36:00,
2013-05-08 15:52:00,74.5,41.0,29.98,SW,215,5.0,8.0,30,0.00,,,0.00,weatherlink.com 1.10,2013-05-08 19:52:00,
2013-05-08 16:07:00,73.6,41.0,29.98,SW,218,0.0,9.0,31,0.00,,,0.00,weatherlink.com 1.10,2013-05-08 20:07:00,
2013-05-08 16:22:00,73.8,41.0,29.98,South,173,5.0,8.0,31,0.00,,,0.00,weatherlink.com 1.10,2013-05-08 20:22:00,
2013-05-08 16:37:00,72.8,41.0,29.98,SSW,195,4.0,7.0,32,0.00,,,0.00,weatherlink.com 1.10,2013-05-08 20:37:00,
2013-05-08 16:52:00,72.4,42.0,29.98,ESE,107,2.0,8.0,34,0.00,,,0.00,weatherlink.com 1.10,2013-05-08 20:52:00,
2013-05-08 17:07:00,71.3,40.0,29.97,SSW,196,3.0,7.0,32,0.00,,,0.00,weatherlink.com 1.10,2013-05-08 21:07:00,
2013-05-08 17:22:00,70.4,41.0,29.97,SSE,149,3.0,7.0,34,0.00,,,0.00,weatherlink.com 1.10,2013-05-08 21:22:00,
2013-05-08 17:37:00,70.1,42.0,29.97,ESE,102,3.0,6.0,36,0.00,,,0.00,weatherlink.com 1.10,2013-05-08 21:37:00,
2013-05-08 17:52:00,69.6,39.0,29.96,SE,134,4.0,8.0,33,0.00,,,0.00,weatherlink.com 1.10,2013-05-08 21:52:00,
2013-05-08 18:07:00,69.5,39.0,29.96,SSE,160,5.0,9.0,33,0.00,,,0.00,weatherlink.com 1.10,2013-05-08 22:07:00,
2013-05-08 18:22:00,71.3,42.0,29.96,SSE,160,3.0,7.0,35,0.00,,,0.00,weatherlink.com 1.10,2013-05-08 22:22:00,
2013-05-08 18:37:00,71.2,40.0,29.95,SW,231,3.0,5.0,32,0.00,,,0.00,weatherlink.com 1.10,2013-05-08 22:37:00,
2013-05-08 18:52:00,71.0,42.0,29.95,SW,222,3.0,5.0,35,0.00,,,0.00,weatherlink.com 1.10,2013-05-08 22:52:00,
2013-05-08 19:07:00,71.1,42.0,29.95,SW,232,3.0,4.0,35,0.00,,,0.00,weatherlink.com 1.10,2013-05-08 23:07:00,
2013-05-08 19:22:00,71.0,42.0,29.95,SE,146,3.0,4.0,35,0.00,,,0.00,weatherlink.com 1.10,2013-05-08 23:22:00,
2013-05-08 19:37:00,69.9,42.0,29.95,SSE,160,3.0,6.0,36,0.00,,,0.00,weatherlink.com 1.10,2013-05-08 23:37:00,
2013-05-08 19:52:00,68.8,41.0,29.95,South,187,1.0,4.0,36,0.00,,,0.00,weatherlink.com 1.10,2013-05-08 23:52:00,
2013-05-08 20:07:00,67.0,38.0,29.95,SSW,212,1.0,5.0,34,0.00,,,0.00,weatherlink.com 1.10,2013-05-09 00:07:00,
2013-05-08 20:22:00,65.4,35.0,29.95,SW,226,1.0,4.0,33,0.00,,,0.00,weatherlink.com 1.10,2013-05-09 00:22:00,
2013-05-08 20:37:00,62.7,35.0,29.95,SW,224,0.0,1.0,35,0.00,,,0.00,weatherlink.com 1.10,2013-05-09 00:37:00,
2013-05-08 20:52:00,59.9,35.0,29.95,SW,224,0.0,1.0,39,0.00,,,0.00,weatherlink.com 1.10,2013-05-09 00:52:00,
2013-05-08 21:07:00,57.7,37.0,29.96,SSE,158,0.0,1.0,47,0.00,,,0.00,weatherlink.com 1.10,2013-05-09 01:07:00,
2013-05-08 21:22:00,55.4,37.0,29.96,SSE,159,0.0,0.0,50,0.00,,,0.00,weatherlink.com 1.10,2013-05-09 01:22:00,
2013-05-08 21:37:00,54.2,36.0,29.95,WSW,250,0.0,1.0,50,0.00,,,0.00,weatherlink.com 1.10,2013-05-09 01:37:00,
2013-05-08 21:52:00,53.0,37.0,29.96,WSW,250,0.0,0.0,54,0.00,,,0.00,weatherlink.com 1.10,2013-05-09 01:52:00,
2013-05-08 22:07:00,51.2,35.0,29.96,WSW,250,0.0,0.0,55,0.00,,,0.00,weatherlink.com 1.10,2013-05-09 02:07:00,
2013-05-08 22:22:00,51.3,37.0,29.96,West,271,0.0,1.0,58,0.00,,,0.00,weatherlink.com 1.10,2013-05-09 02:22:00,
2013-05-08 22:37:00,50.8,38.0,29.96,West,271,0.0,1.0,61,0.00,,,0.00,weatherlink.com 1.10,2013-05-09 02:37:00,
2013-05-08 22:52:00,50.4,38.0,29.96,West,270,0.0,0.0,63,0.00,,,0.00,weatherlink.com 1.10,2013-05-09 02:52:00,
2013-05-08 23:07:00,49.7,39.0,29.96,West,269,0.0,0.0,67,0.00,,,0.00,weatherlink.com 1.10,2013-05-09 03:07:00,
2013-05-08 23:22:00,49.2,39.0,29.96,West,265,0.0,0.0,68,0.00,,,0.00,weatherlink.com 1.10,2013-05-09 03:22:00,
2013-05-08 23:37:00,49.2,39.0,29.95,West,265,0.0,0.0,67,0.00,,,0.00,weatherlink.com 1.10,2013-05-09 03:37:00,
2013-05-08 23:52:00,49.5,39.0,29.95,West,263,0.0,0.0,67,0.00,,,0.00,weatherlink.com 1.10,2013-05-09 03:52:00,